Location: Gleizolles
(44.4833°N, 6.7667°E)
Time: 15:08:22
(UTC+00:00)

Vanguard 1 - Pass Details

Date: 26 June 2024
Orbit: 650 x 3826 km, 34.3° (Epoch: 22 July)

Event Time Altitude Azimuth Distance (km) Brightness Sun altitude
Rises 07:01:26 0° 196° (SSW) 7,050 14.3 31.1°
Reaches altitude 10° 07:10:20 10° 174° (S) 5,248 13.9 32.7°
Maximum altitude 07:15:49 13° 151° (SSE) 4,417 13.9 33.7°
Drops below altitude 10° 07:20:19 10° 128° (SE) 4,154 14.1 34.5°
Sets 07:25:26 0° 102° (ESE) 4,519 14.4 35.4°
